When you browse on this site, cookies collect data to enhance your experience and personalize the content and advertising you see.
Visit our Privacy Policy to learn more. By continuing to use the site, you agree to this use of cookies and data.
  • In Romania
  • List of Countries
  • For 7 days
  • Water Temperature
  • Weather Map
  • Weather Widgets
  • user-avatar
    Login

    Hourly Weather Saran

    Today, 4 June, Thursday

    Time Temperature Precipitation Wind Pressure Humidity
    00:00 +14°C° 0.3 mm 2 mps 740 mmHg 94%
    01:00 +14°C° 0.6 mm 2 mps 740 mmHg 94%
    02:00 +12°C° 0.6 mm 3 mps 739 mmHg 94%
    03:00 +12°C° 0.6 mm 3 mps 739 mmHg 95%
    04:00 +12°C° 0.6 mm 3 mps 739 mmHg 94%
    05:00 +12°C° 0.6 mm 3 mps 739 mmHg 93%
    06:00 +12°C° 0.6 mm 3 mps 739 mmHg 92%
    07:00 +13°C° 0.3 mm 3 mps 740 mmHg 92%
    08:00 +13°C° 0.3 mm 4 mps 740 mmHg 91%
    09:00 +13°C° 0.3 mm 4 mps 740 mmHg 91%
    10:00 +13°C° 0.3 mm 4 mps 740 mmHg 89%
    11:00 +13°C° 0.3 mm 4 mps 740 mmHg 88%
    12:00 +13°C° 0.3 mm 3 mps 740 mmHg 87%
    13:00 +14°C° 0.2 mm 4 mps 740 mmHg 83%
    14:00 +15°C° 0.2 mm 4 mps 740 mmHg 78%
    15:00 +15°C° 0.2 mm 4 mps 740 mmHg 73%
    16:00 +15°C° 0.1 mm 4 mps 740 mmHg 76%
    17:00 +14°C° 0.1 mm 4 mps 741 mmHg 78%
    18:00 +13°C° 0.1 mm 4 mps 741 mmHg 81%
    19:00 +12°C° 0 mm 4 mps 741 mmHg 83%
    20:00 +11°C° 0 mm 3 mps 742 mmHg 85%
    21:00 +10°C° 0 mm 3 mps 742 mmHg 88%
    22:00 +10°C° 0 mm 3 mps 743 mmHg 88%
    23:00 +9°C° 0 mm 3 mps 743 mmHg 87%

    Tomorrow, 5 June, Friday

    Time Temperature Precipitation Wind Pressure Humidity
    00:00 +9°C° 0 mm 3 mps 743 mmHg 87%
    01:00 +8°C° 0 mm 3 mps 743 mmHg 89%
    02:00 +8°C° 0 mm 3 mps 742 mmHg 91%
    03:00 +7°C° 0 mm 3 mps 742 mmHg 92%
    04:00 +7°C° 0.1 mm 4 mps 742 mmHg 91%
    05:00 +8°C° 0.1 mm 4 mps 742 mmHg 90%
    06:00 +8°C° 0.1 mm 5 mps 742 mmHg 89%
    07:00 +9°C° 0.4 mm 5 mps 741 mmHg 91%
    08:00 +9°C° 0.4 mm 6 mps 741 mmHg 93%
    09:00 +10°C° 0.4 mm 6 mps 741 mmHg 95%
    10:00 +11°C° 0.3 mm 6 mps 741 mmHg 93%
    11:00 +13°C° 0.3 mm 6 mps 741 mmHg 90%
    12:00 +14°C° 0.3 mm 6 mps 741 mmHg 88%
    13:00 +14°C° 0.3 mm 6 mps 741 mmHg 89%
    14:00 +14°C° 0.3 mm 5 mps 741 mmHg 90%
    15:00 +13°C° 0.3 mm 5 mps 741 mmHg 91%
    16:00 +13°C° 0.4 mm 4 mps 741 mmHg 92%
    17:00 +13°C° 0.4 mm 4 mps 741 mmHg 93%
    18:00 +13°C° 0.4 mm 3 mps 740 mmHg 95%
    19:00 +13°C° 0.3 mm 4 mps 741 mmHg 94%
    20:00 +13°C° 0.3 mm 5 mps 742 mmHg 94%
    21:00 +13°C° 0.3 mm 5 mps 742 mmHg 93%
    22:00 +12°C° 0.2 mm 5 mps 742 mmHg 93%
    23:00 +12°C° 0.2 mm 4 mps 742 mmHg 94%

    Day after tomorrow, 6 June, Saturday

    Time Temperature Precipitation Wind Pressure Humidity
    00:00 +11°C° 0.2 mm 3 mps 742 mmHg 94%
    01:00 +11°C° 0.1 mm 3 mps 742 mmHg 94%
    02:00 +12°C° 0.1 mm 2 mps 743 mmHg 94%
    03:00 +10°C° 0.1 mm 2 mps 743 mmHg 94%
    04:00 +12°C° 0 mm 2 mps 743 mmHg 93%
    05:00 +11°C° 0 mm 3 mps 743 mmHg 92%
    06:00 +11°C° 0 mm 3 mps 743 mmHg 90%
    07:00 +12°C° 0 mm 4 mps 743 mmHg 82%
    08:00 +14°C° 0 mm 4 mps 743 mmHg 74%
    09:00 +15°C° 0 mm 5 mps 744 mmHg 66%
    10:00 +16°C° 0.1 mm 6 mps 744 mmHg 63%
    11:00 +16°C° 0.1 mm 6 mps 744 mmHg 61%
    12:00 +17°C° 0.1 mm 6 mps 744 mmHg 58%
    13:00 +17°C° 0 mm 6 mps 744 mmHg 56%
    14:00 +17°C° 0 mm 7 mps 744 mmHg 54%
    15:00 +16°C° 0 mm 7 mps 744 mmHg 53%
    16:00 +16°C° 0 mm 6 mps 744 mmHg 56%
    17:00 +15°C° 0 mm 5 mps 744 mmHg 60%
    18:00 +14°C° 0 mm 5 mps 744 mmHg 64%
    19:00 +12°C° 0 mm 4 mps 745 mmHg 69%
    20:00 +10°C° 0 mm 3 mps 745 mmHg 74%
    21:00 +8°C° 0 mm 2 mps 746 mmHg 78%
    22:00 +8°C° 0 mm 2 mps 746 mmHg 79%
    23:00 +7°C° 0 mm 2 mps 746 mmHg 80%

    7 June, Sunday

    Time Temperature Precipitation Wind Pressure Humidity
    00:00 +7°C° 0 mm 2 mps 746 mmHg 81%
    01:00 +7°C° 0 mm 2 mps 746 mmHg 80%
    02:00 +7°C° 0 mm 2 mps 746 mmHg 79%
    03:00 +7°C° 0 mm 3 mps 746 mmHg 78%
    04:00 +7°C° 0 mm 3 mps 747 mmHg 76%
    05:00 +8°C° 0 mm 3 mps 747 mmHg 75%
    06:00 +8°C° 0 mm 4 mps 747 mmHg 74%
    07:00 +10°C° 0 mm 4 mps 747 mmHg 68%
    08:00 +12°C° 0 mm 4 mps 748 mmHg 63%
    09:00 +13°C° 0 mm 4 mps 748 mmHg 57%
    10:00 +14°C° 0 mm 4 mps 748 mmHg 56%
    11:00 +15°C° 0 mm 4 mps 748 mmHg 55%
    12:00 +17°C° 0 mm 4 mps 748 mmHg 54%
    13:00 +16°C° 0.2 mm 5 mps 748 mmHg 57%
    14:00 +16°C° 0.2 mm 5 mps 748 mmHg 60%
    15:00 +16°C° 0.2 mm 5 mps 748 mmHg 62%
    16:00 +17°C° 0.5 mm 4 mps 748 mmHg 69%
    17:00 +15°C° 0.5 mm 4 mps 748 mmHg 75%
    18:00 +14°C° 0.5 mm 3 mps 748 mmHg 81%
    19:00 +13°C° 0.2 mm 3 mps 748 mmHg 84%
    20:00 +12°C° 0.2 mm 3 mps 749 mmHg 88%
    21:00 +10°C° 0.2 mm 2 mps 749 mmHg 91%
    22:00 +10°C° 0 mm 2 mps 749 mmHg 92%
    23:00 +9°C° 0 mm 2 mps 749 mmHg 93%

    8 June, Monday

    Time Temperature Precipitation Wind Pressure Humidity
    00:00 +9°C° 0 mm 2 mps 749 mmHg 93%
    01:00 +8°C° 0 mm 2 mps 749 mmHg 94%
    02:00 +8°C° 0 mm 2 mps 749 mmHg 95%
    03:00 +8°C° 0 mm 2 mps 749 mmHg 95%
    04:00 +9°C° 0 mm 2 mps 750 mmHg 94%
    05:00 +9°C° 0 mm 2 mps 750 mmHg 94%
    06:00 +10°C° 0 mm 3 mps 750 mmHg 93%
    07:00 +12°C° 0.1 mm 3 mps 750 mmHg 88%
    08:00 +13°C° 0.1 mm 3 mps 751 mmHg 84%
    09:00 +16°C° 0.1 mm 3 mps 751 mmHg 79%
    10:00 +16°C° 0.5 mm 3 mps 751 mmHg 79%
    11:00 +16°C° 0.5 mm 3 mps 751 mmHg 79%
    12:00 +16°C° 0.5 mm 3 mps 751 mmHg 79%
    13:00 +17°C° 0.4 mm 3 mps 751 mmHg 78%
    14:00 +17°C° 0.4 mm 3 mps 751 mmHg 76%
    15:00 +18°C° 0.4 mm 3 mps 751 mmHg 74%
    16:00 +17°C° 0.4 mm 3 mps 751 mmHg 78%
    17:00 +17°C° 0.4 mm 3 mps 751 mmHg 81%
    18:00 +16°C° 0.4 mm 3 mps 751 mmHg 85%
    19:00 +14°C° 0 mm 3 mps 752 mmHg 87%
    20:00 +14°C° 0 mm 2 mps 752 mmHg 88%
    21:00 +12°C° 0 mm 2 mps 753 mmHg 90%
    22:00 +12°C° 0 mm 2 mps 753 mmHg 90%
    23:00 +10°C° 0 mm 2 mps 753 mmHg 91%

    9 June, Tuesday

    Time Temperature Precipitation Wind Pressure Humidity
    00:00 +9°C° 0 mm 2 mps 753 mmHg 92%
    01:00 +9°C° 0 mm 2 mps 753 mmHg 93%
    02:00 +8°C° 0 mm 2 mps 753 mmHg 93%
    03:00 +8°C° 0 mm 2 mps 753 mmHg 94%
    04:00 +9°C° 0 mm 2 mps 754 mmHg 92%
    05:00 +9°C° 0 mm 2 mps 754 mmHg 91%
    06:00 +10°C° 0 mm 2 mps 754 mmHg 89%
    07:00 +13°C° 0 mm 2 mps 754 mmHg 80%
    08:00 +14°C° 0 mm 2 mps 755 mmHg 70%
    09:00 +16°C° 0 mm 2 mps 755 mmHg 60%
    10:00 +17°C° 0 mm 2 mps 755 mmHg 60%
    11:00 +17°C° 0 mm 3 mps 755 mmHg 59%
    12:00 +18°C° 0 mm 3 mps 755 mmHg 58%
    13:00 +18°C° 0 mm 3 mps 755 mmHg 58%
    14:00 +18°C° 0 mm 3 mps 754 mmHg 58%
    15:00 +18°C° 0 mm 3 mps 754 mmHg 59%
    16:00 +18°C° 0 mm 2 mps 754 mmHg 63%
    17:00 +17°C° 0 mm 2 mps 754 mmHg 67%
    18:00 +18°C° 0 mm 1 mps 754 mmHg 71%
    19:00 +15°C° 0 mm 1 mps 754 mmHg 75%
    20:00 +14°C° 0 mm 1 mps 755 mmHg 78%
    21:00 +12°C° 0 mm 1 mps 755 mmHg 82%
    22:00 +12°C° 0 mm 1 mps 755 mmHg 83%
    23:00 +11°C° 0 mm 1 mps 754 mmHg 83%
    Show more